Voltar ao catálogo

STARLINK-36307

AtivoComunicaçõesSSO
NORAD 68306·PAYLOAD·🇺🇸 United States

Lançado Mar 20, 2026 de Vandenberg Space Force Base

Loading…

Próximas Passagens (próximas 24 horas)

TLE

AtualizadoSource: CelesTrak SupGP

Época: Sep 15, 2026, 02:54 UTC

1 68306C 26057N   26258.12131944  .00007981  00000+0  24793-3 0  2581
2 68306  97.2858  23.5847 0001293  93.8004  78.8555 15.33412630    19

Acompanhe STARLINK-36307 em tempo real com AllMySat

Download on the App Store